This demonstration page uses our WeatherBlox Daily Observations layout. Learn more.

Left ArrowRight Arrow

39.12711, -84.51439

Hourly Observations for July 24, 2018

Temp ( °F °C ) Dew Point ( °F °C ) Humidity (%) Winds ( mph kmh ) Pressure ( in mb ) Visibility ( mi km ) Precip ( " mm )
12:53 am 00:53 Mostly Cloudy 67 19.4 67 19.4 100 100 SE 5 7 29.93 1013 8 13 0.00 0.00
1:53 am 01:53 Clear 66 18.9 66 18.9 100 100 Calm 29.93 1013 7 11 0.00 0.00
2:53 am 02:53 Clear with Mist and Fog 66 18.9 66 18.9 100 100 Calm 29.92 1013 6 10 0.00 0.00
3:21 am 03:21 Mostly Clear with Mist and Fog 64 17.8 64 17.8 100 100 Calm 29.91 1013 2 2 0.00 0.00
3:29 am 03:29 Clear with Fog 64 17.8 64 17.8 100 100 Calm 29.91 1013 1 1 0.00 0.00
3:48 am 03:48 Clear with Mist and Fog 64 18 64 18 100 100 Calm 29.91 1013 3 4 0.00 0.00
3:53 am 03:53 Clear with Mist and Fog 65 18.3 65 18.3 100 100 Calm 29.93 1014 4 6 0.00 0.00
4:53 am 04:53 Clear with Mist and Fog 64 17.8 64 17.8 100 100 Calm 29.94 1014 6 10 0.00 0.00
5:28 am 05:28 Clear with Mist and Fog 64 17.8 64 17.8 100 100 Calm 29.94 1014 2 3 0.00 0.00
5:38 am 05:38 Clear with Mist and Fog 64 17.8 64 17.8 100 100 Calm 29.94 1014 6 10 0.00 0.00
5:53 am 05:53 Clear with Mist and Fog 63 17.2 63 17.2 100 100 Calm 29.96 1015 5 8 0.00 0.00
6:26 am 06:26 Clear with Mist and Fog 63 17.2 63 17.2 100 100 Calm 29.94 1014 2 2 0.00 0.00
6:31 am 06:31 Clear with Fog 62 16.7 62 16.7 100 100 Calm 29.94 1014 0 0 0.00 0.00
6:44 am 06:44 Sunny with Mist and Fog 63 17.2 63 17.2 100 100 Calm 29.94 1014 2 2 0.00 0.00
6:46 am 06:46 Sunny with Mist and Fog 62 16.7 62 16.7 100 100 Calm 29.94 1014 3 5 0.00 0.00
6:53 am 06:53 Sunny with Mist and Fog 63 17.2 63 17.2 100 100 Calm 29.96 1015 6 10 0.00 0.00
7:53 am 07:53 Sunny with Mist and Fog 67 19.4 67 19.4 100 100 Calm 29.98 1015 6 10 0.00 0.00
8:53 am 08:53 Partly Cloudy 72 22.2 68 20 87 87 VRB 3 6 29.97 1015 10 16 0.00 0.00
9:26 am 09:26 Mostly Cloudy 74 23.3 68 20 82 82 NNW 7 11 29.97 1015 10 16 0.00 0.00
9:53 am 09:53 Mostly Cloudy 72 22.2 68 20 87 87 NW 6 9 29.98 1015 10 16 0.00 0.00
10:53 am 10:53 Mostly Cloudy 74 23.3 67 19.4 79 79 Calm 29.99 1016 10 16 0.00 0.00
11:53 am 11:53 Cloudy 76 24.4 67 19.4 74 74 VRB 6 9 30.00 1016 10 16 0.00 0.00
12:53 pm 12:53 Cloudy 77 25 66 18.9 69 69 Calm 29.99 1016 10 16 0.00 0.00
1:53 pm 13:53 Mostly Cloudy 81 27.2 67 19.4 62 62 VRB 6 9 29.98 1015 10 16 0.00 0.00
2:53 pm 14:53 Mostly Cloudy 79 26.1 67 19.4 67 67 W 10 17 29.97 1015 10 16 0.00 0.00
3:53 pm 15:53 Cloudy 79 26.1 67 19.4 67 67 NW 6 9 29.95 1014 10 16 0.00 0.00
4:53 pm 16:53 Cloudy 79 26.1 65 18.3 62 62 W 7 11 29.95 1014 10 16 0.00 0.00
5:53 pm 17:53 Cloudy 79 26.1 66 18.9 65 65 NW 5 7 29.94 1014 10 16 0.00 0.00
6:53 pm 18:53 Mostly Cloudy 80 26.7 66 18.9 62 62 VRB 6 9 29.93 1014 10 16 0.00 0.00
7:53 pm 19:53 Mostly Cloudy 78 25.6 66 18.9 67 67 NW 6 9 29.94 1014 10 16 0.00 0.00
8:53 pm 20:53 Mostly Cloudy 76 24.4 66 18.9 72 72 Calm 29.95 1014 10 16 0.00 0.00
9:53 pm 21:53 Clear 70 21.1 67 19.4 90 90 Calm 29.96 1015 10 16 0.00 0.00
10:53 pm 22:53 Clear 68 20 67 19.4 96 96 Calm 29.98 1015 10 16 0.00 0.00
11:53 pm 23:53 Clear 67 19.4 67 19.4 100 100 Calm 29.97 1015 10 16 0.00 0.00

Powered by AerisWeather